TimePST,TemperatureF,Dew PointF,Humidity,Sea Level PressureIn,VisibilityMPH,Wind Direction,Wind SpeedMPH,Gust SpeedMPH,PrecipitationIn,Events,Conditions,WindDirDegrees,DateUTC
12:56 AM,-9999,-9999,N/A,30.27,10.0,Calm,Calm,-,N/A,,Clear,0,2013-02-24 08:56:00
1:56 AM,-9999,-9999,N/A,30.29,10.0,Calm,Calm,-,N/A,,Clear,0,2013-02-24 09:56:00
2:56 AM,-9999,-9999,N/A,30.29,10.0,Calm,Calm,-,N/A,,Clear,0,2013-02-24 10:56:00
4:56 AM,-9999,-9999,N/A,30.31,10.0,Calm,Calm,-,N/A,,Clear,0,2013-02-24 12:56:00
5:56 AM,-9999,-9999,N/A,30.32,10.0,Calm,Calm,-,N/A,,Clear,0,2013-02-24 13:56:00
6:56 AM,-9999,-9999,N/A,30.32,10.0,Calm,Calm,-,N/A,,Clear,0,2013-02-24 14:56:00
7:56 AM,-9999,-9999,N/A,30.34,10.0,Calm,Calm,-,N/A,,Clear,0,2013-02-24 15:56:00
8:56 AM,-9999,-9999,N/A,30.35,10.0,NNW,4.6,-,N/A,,Clear,340,2013-02-24 16:56:00
9:56 AM,-9999,-9999,N/A,30.35,10.0,NNW,4.6,-,N/A,,Clear,330,2013-02-24 17:56:00
10:56 AM,-9999,-9999,N/A,30.33,10.0,Calm,Calm,-,N/A,,Mostly Cloudy,0,2013-02-24 18:56:00
11:56 AM,-9999,-9999,N/A,30.31,10.0,South,16.1,-,N/A,,Overcast,170,2013-02-24 19:56:00
12:56 PM,-9999,-9999,N/A,30.29,10.0,South,12.7,-,N/A,,Clear,170,2013-02-24 20:56:00
1:56 PM,-9999,-9999,N/A,30.26,10.0,SSE,8.1,-,N/A,,Overcast,150,2013-02-24 21:56:00
2:56 PM,-9999,-9999,N/A,30.25,10.0,Variable,4.6,-,N/A,,Overcast,0,2013-02-24 22:56:00
3:56 PM,-9999,-9999,N/A,30.24,10.0,SE,5.8,-,N/A,,Overcast,140,2013-02-24 23:56:00
4:56 PM,-9999,-9999,N/A,30.22,10.0,South,6.9,-,N/A,,Overcast,180,2013-02-25 00:56:00
5:56 PM,-9999,-9999,N/A,30.20,10.0,SSE,5.8,-,N/A,,Overcast,150,2013-02-25 01:56:00
6:56 PM,-9999,-9999,N/A,30.19,10.0,South,5.8,-,N/A,,Scattered Clouds,170,2013-02-25 02:56:00
7:56 PM,-9999,-9999,N/A,30.17,10.0,South,4.6,-,N/A,,Overcast,190,2013-02-25 03:56:00
8:56 PM,-9999,-9999,N/A,30.14,10.0,ESE,4.6,-,N/A,,Mostly Cloudy,110,2013-02-25 04:56:00
9:56 PM,-9999,-9999,N/A,30.13,10.0,SE,5.8,-,N/A,,Mostly Cloudy,140,2013-02-25 05:56:00
10:56 PM,-9999,-9999,N/A,30.11,10.0,ESE,6.9,-,N/A,,Clear,110,2013-02-25 06:56:00
11:56 PM,-9999,-9999,N/A,30.10,10.0,ESE,5.8,-,N/A,,Clear,110,2013-02-25 07:56:00